This is the latest recevied weather packets stored in our database for station/object KJ7HSW. If no packets are shown the sender has not sent any weather packets the latest 10 day(s).
| Time | Temp. | Humidity | Pressure | Rain* | Wind** | Luminosity | Snow |
|---|---|---|---|---|---|---|---|
| 1778197614 | 18.89° C | 59% | 1017.2 hPa | 0 mm | - | 306 W/m² | - |
| 1778197310 | 18.33° C | 61% | 1017.2 hPa | 0 mm | - | 312 W/m² | - |
| 1778197007 | 17.78° C | 62% | 1017.3 hPa | 0 mm | - | 275 W/m² | - |
| 1778196706 | 17.22° C | 61% | 1017.1 hPa | 0 mm | - | 288 W/m² | - |
| 1778196402 | 17.78° C | 60% | 1017.3 hPa | 0 mm | - | 304 W/m² | - |
| 1778196099 | 17.78° C | 60% | 1017.5 hPa | 0 mm | - | 294 W/m² | - |
| 1778195796 | 18.33° C | 60% | 1017.4 hPa | 0 mm | - | 310 W/m² | - |
| 1778195493 | 18.33° C | 60% | 1017.3 hPa | 0 mm | - | 310 W/m² | - |
| 1778195189 | 18.33° C | 60% | 1017.4 hPa | 0 mm | - | 303 W/m² | - |
| 1778194886 | 18.33° C | 60% | 1017.6 hPa | 0 mm | - | 341 W/m² | - |
| 1778194581 | 17.78° C | 61% | 1017.5 hPa | 0 mm | - | 341 W/m² | - |
| 1778194277 | 17.78° C | 61% | 1017.7 hPa | 0 mm | - | 392 W/m² | - |
| 1778193973 | 17.78° C | 61% | 1017.6 hPa | 0 mm | - | 371 W/m² | - |
| 1778193670 | 17.78° C | 60% | 1017.6 hPa | 0 mm | - | 390 W/m² | - |
| 1778193366 | 17.78° C | 60% | 1017.8 hPa | 0 mm | - | 368 W/m² | - |
| 1778193063 | 18.33° C | 59% | 1017.9 hPa | 0 mm | - | 357 W/m² | - |
| 1778192760 | 17.78° C | 60% | 1017.9 hPa | 0 mm | - | 361 W/m² | - |
| 1778192456 | 17.78° C | 62% | 1018 hPa | 0 mm | - | 385 W/m² | - |
| 1778192153 | 17.78° C | 60% | 1018 hPa | 0 mm | - | 379 W/m² | - |
| 1778191850 | 17.78° C | 61% | 1018.2 hPa | 0 mm | - | 384 W/m² | - |
| 1778191547 | 17.22° C | 61% | 1018.1 hPa | 0 mm | - | 382 W/m² | - |
| 1778191244 | 17.22° C | 61% | 1018.2 hPa | 0 mm | - | 380 W/m² | - |
| 1778190940 | 17.22° C | 61% | 1018.5 hPa | 0 mm | - | 399 W/m² | - |
| 1778190639 | 17.78° C | 60% | 1018.3 hPa | 0 mm | - | 406 W/m² | - |
| 1778190336 | 17.22° C | 63% | 1018.5 hPa | 0 mm | - | 454 W/m² | - |
* Rain latest hour (hover to see other rain measurements)
** Current wind speed in m/s (hover to see current wind gust speed)